When you browse on this site, cookies collect data to enhance your experience and personalize the content and advertising you see.
Visit our Privacy Policy to learn more. By continuing to use the site, you agree to this use of cookies and data.
  • In Romania
  • List of Countries
  • For 7 days
  • Water Temperature
  • Satellite Maps
  • Weather Map
  • Weather Widgets
  • user-avatar
    Login

    Hourly Weather Columbus

    Today, 23 February, Saturday

    Time Temperature Precipitation Wind Pressure Humidity
    00:00 0°C° 0 mm 3 mps 748 mmHg 76%
    01:00 0°C° 0 mm 3 mps 747 mmHg 76%
    02:00 0°C° 0 mm 3 mps 747 mmHg 76%
    03:00 0°C° 0 mm 3 mps 746 mmHg 76%
    04:00 0°C° 0 mm 3 mps 746 mmHg 76%
    05:00 0°C° 0 mm 3 mps 745 mmHg 76%
    06:00 +2°C° 0 mm 2 mps 744 mmHg 79%
    07:00 +2°C° 0 mm 3 mps 744 mmHg 79%
    08:00 +3°C° 0 mm 4 mps 743 mmHg 79%
    09:00 +4°C° 0 mm 4 mps 743 mmHg 79%
    10:00 +5°C° 0 mm 4 mps 742 mmHg 80%
    11:00 +7°C° 0 mm 4 mps 742 mmHg 81%
    12:00 +8°C° 0 mm 4 mps 741 mmHg 82%
    13:00 +10°C° 0 mm 4 mps 740 mmHg 83%
    14:00 +10°C° 0 mm 4 mps 740 mmHg 85%
    15:00 +11°C° 0 mm 4 mps 739 mmHg 86%
    16:00 +11°C° 0.1 mm 4 mps 738 mmHg 89%
    17:00 +10°C° 0.1 mm 4 mps 737 mmHg 92%
    18:00 +9°C° 0.1 mm 5 mps 737 mmHg 95%
    19:00 +9°C° 0.7 mm 5 mps 736 mmHg 95%
    20:00 +9°C° 0.7 mm 5 mps 735 mmHg 95%
    21:00 +9°C° 0.7 mm 5 mps 734 mmHg 95%
    22:00 +10°C° 1.6 mm 5 mps 733 mmHg 95%
    23:00 +10°C° 1.6 mm 6 mps 732 mmHg 95%

    Tomorrow, 24 February, Sunday

    Time Temperature Precipitation Wind Pressure Humidity
    00:00 +10°C° 1.6 mm 6 mps 730 mmHg 95%
    01:00 +11°C° 1.3 mm 7 mps 729 mmHg 94%
    02:00 +12°C° 1.3 mm 7 mps 728 mmHg 94%
    03:00 +12°C° 1.3 mm 8 mps 727 mmHg 93%
    04:00 +11°C° 0.1 mm 8 mps 726 mmHg 86%
    05:00 +10°C° 0.1 mm 8 mps 726 mmHg 78%
    06:00 +9°C° 0.1 mm 8 mps 726 mmHg 71%
    07:00 +7°C° 0.1 mm 9 mps 727 mmHg 69%
    08:00 +5°C° 0.1 mm 10 mps 728 mmHg 68%
    09:00 +3°C° 0.1 mm 11 mps 729 mmHg 66%
    10:00 +3°C° 0.1 mm 12 mps 730 mmHg 65%
    11:00 +3°C° 0.1 mm 12 mps 731 mmHg 63%
    12:00 +3°C° 0.1 mm 13 mps 732 mmHg 62%
    13:00 +2°C° 0 mm 12 mps 732 mmHg 60%
    14:00 +2°C° 0 mm 12 mps 733 mmHg 58%
    15:00 +2°C° 0 mm 12 mps 733 mmHg 56%
    16:00 +1°C° 0 mm 11 mps 734 mmHg 54%
    17:00 -1°C° 0 mm 11 mps 735 mmHg 52%
    18:00 -2°C° 0 mm 10 mps 736 mmHg 51%
    19:00 -3°C° 0 mm 10 mps 737 mmHg 52%
    20:00 -4°C° 0 mm 10 mps 737 mmHg 54%
    21:00 -7°C° 0 mm 10 mps 738 mmHg 56%
    22:00 -7°C° 0 mm 10 mps 739 mmHg 55%
    23:00 -8°C° 0 mm 10 mps 740 mmHg 54%

    Day after tomorrow, 25 February, Monday

    Time Temperature Precipitation Wind Pressure Humidity
    00:00 -8°C° 0 mm 10 mps 741 mmHg 53%
    01:00 -9°C° 0 mm 9 mps 742 mmHg 50%
    02:00 -9°C° 0 mm 9 mps 743 mmHg 47%
    03:00 -9°C° 0 mm 9 mps 743 mmHg 45%
    04:00 -10°C° 0 mm 9 mps 744 mmHg 42%
    05:00 -10°C° 0 mm 8 mps 745 mmHg 39%
    06:00 -10°C° 0 mm 8 mps 746 mmHg 36%
    07:00 -10°C° 0 mm 8 mps 747 mmHg 34%
    08:00 -8°C° 0 mm 8 mps 748 mmHg 31%
    09:00 -8°C° 0 mm 7 mps 749 mmHg 29%
    10:00 -7°C° 0 mm 7 mps 749 mmHg 26%
    11:00 -6°C° 0 mm 7 mps 749 mmHg 24%
    12:00 -4°C° 0 mm 6 mps 750 mmHg 22%
    13:00 -3°C° 0 mm 6 mps 749 mmHg 22%
    14:00 -3°C° 0 mm 6 mps 749 mmHg 21%
    15:00 -2°C° 0 mm 6 mps 749 mmHg 21%
    16:00 -2°C° 0 mm 5 mps 750 mmHg 24%
    17:00 -3°C° 0 mm 4 mps 750 mmHg 28%
    18:00 -4°C° 0 mm 3 mps 750 mmHg 31%
    19:00 -5°C° 0 mm 3 mps 751 mmHg 32%
    20:00 -5°C° 0 mm 3 mps 751 mmHg 33%
    21:00 -5°C° 0 mm 3 mps 752 mmHg 33%
    22:00 -5°C° 0 mm 3 mps 752 mmHg 34%
    23:00 -6°C° 0 mm 3 mps 752 mmHg 34%

    26 February, Tuesday

    Time Temperature Precipitation Wind Pressure Humidity
    00:00 -6°C° 0 mm 3 mps 752 mmHg 34%
    01:00 -6°C° 0 mm 3 mps 752 mmHg 37%
    02:00 -6°C° 0 mm 3 mps 752 mmHg 40%
    03:00 -6°C° 0 mm 2 mps 752 mmHg 43%
    04:00 -6°C° 0 mm 2 mps 753 mmHg 47%
    05:00 -6°C° 0 mm 2 mps 753 mmHg 52%
    06:00 -6°C° 0 mm 2 mps 753 mmHg 56%
    07:00 -6°C° 0 mm 2 mps 754 mmHg 56%
    08:00 -5°C° 0 mm 2 mps 754 mmHg 56%
    09:00 -3°C° 0 mm 1 mps 754 mmHg 56%
    10:00 -1°C° 0 mm 1 mps 754 mmHg 52%
    11:00 0°C° 0 mm 1 mps 753 mmHg 49%
    12:00 +2°C° 0 mm 1 mps 753 mmHg 45%
    13:00 +2°C° 0 mm 1 mps 752 mmHg 45%
    14:00 +3°C° 0 mm 1 mps 752 mmHg 46%
    15:00 +3°C° 0 mm 1 mps 751 mmHg 46%
    16:00 +2°C° 0 mm 1 mps 751 mmHg 50%
    17:00 -1°C° 0 mm 2 mps 751 mmHg 54%
    18:00 -2°C° 0 mm 2 mps 750 mmHg 59%
    19:00 -2°C° 0 mm 2 mps 750 mmHg 60%
    20:00 -2°C° 0 mm 3 mps 750 mmHg 62%
    21:00 -4°C° 0 mm 3 mps 750 mmHg 63%
    22:00 -4°C° 0 mm 3 mps 749 mmHg 64%
    23:00 -4°C° 0 mm 3 mps 749 mmHg 64%

    27 February, Wednesday

    Time Temperature Precipitation Wind Pressure Humidity
    00:00 -4°C° 0 mm 3 mps 748 mmHg 65%
    01:00 -5°C° 0 mm 3 mps 747 mmHg 65%
    02:00 -5°C° 0 mm 3 mps 747 mmHg 66%
    03:00 -5°C° 0 mm 3 mps 746 mmHg 67%
    04:00 -5°C° 0 mm 3 mps 745 mmHg 68%
    05:00 -4°C° 0 mm 3 mps 745 mmHg 68%
    06:00 -4°C° 0 mm 3 mps 745 mmHg 69%
    07:00 -1°C° 0 mm 3 mps 744 mmHg 66%
    08:00 +1°C° 0 mm 3 mps 744 mmHg 62%
    09:00 +3°C° 0 mm 4 mps 743 mmHg 59%
    10:00 +6°C° 0 mm 4 mps 742 mmHg 58%
    11:00 +8°C° 0 mm 5 mps 741 mmHg 58%
    12:00 +11°C° 0 mm 6 mps 741 mmHg 58%
    13:00 +11°C° 0 mm 6 mps 740 mmHg 61%
    14:00 +12°C° 0 mm 5 mps 740 mmHg 64%
    15:00 +12°C° 0 mm 5 mps 739 mmHg 68%
    16:00 +9°C° 0.6 mm 5 mps 740 mmHg 76%
    17:00 +7°C° 0.6 mm 5 mps 740 mmHg 83%
    18:00 +5°C° 0.6 mm 4 mps 740 mmHg 91%
    19:00 +3°C° 0 mm 5 mps 740 mmHg 89%
    20:00 +2°C° 0 mm 5 mps 741 mmHg 86%
    21:00 -1°C° 0 mm 6 mps 741 mmHg 84%
    22:00 -1°C° 0 mm 5 mps 742 mmHg 82%
    23:00 -2°C° 0 mm 4 mps 742 mmHg 80%

    28 February, Thursday

    Time Temperature Precipitation Wind Pressure Humidity
    00:00 -4°C° 0 mm 4 mps 743 mmHg 78%
    01:00 -4°C° 0 mm 4 mps 743 mmHg 77%
    02:00 -5°C° 0 mm 4 mps 743 mmHg 76%
    03:00 -6°C° 0 mm 3 mps 744 mmHg 75%
    04:00 -6°C° 0 mm 3 mps 744 mmHg 74%
    05:00 -6°C° 0 mm 3 mps 744 mmHg 72%
    06:00 -7°C° 0 mm 3 mps 745 mmHg 71%
    07:00 -6°C° 0 mm 3 mps 745 mmHg 66%
    08:00 -5°C° 0 mm 3 mps 745 mmHg 60%
    09:00 -5°C° 0 mm 3 mps 746 mmHg 55%
    10:00 -2°C° 0 mm 2 mps 745 mmHg 49%
    11:00 -1°C° 0 mm 2 mps 745 mmHg 44%
    12:00 +1°C° 0 mm 2 mps 745 mmHg 38%
    13:00 +2°C° 0 mm 2 mps 744 mmHg 37%
    14:00 +2°C° 0 mm 2 mps 744 mmHg 37%
    15:00 +3°C° 0 mm 2 mps 743 mmHg 36%
    16:00 +2°C° 0 mm 2 mps 743 mmHg 41%
    17:00 +1°C° 0 mm 2 mps 744 mmHg 45%
    18:00 +1°C° 0 mm 2 mps 744 mmHg 50%
    19:00 -1°C° 0.1 mm 2 mps 744 mmHg 58%
    20:00 -2°C° 0.1 mm 2 mps 744 mmHg 67%
    21:00 -2°C° 0.1 mm 3 mps 744 mmHg 75%
    22:00 -4°C° 0 mm 3 mps 743 mmHg 77%
    23:00 -4°C° 0 mm 3 mps 743 mmHg 79%
    Show more